Location: El Águila
(10.4167°N, 66.7167°W)
Time: 04:33:40
(UTC+00:00)

Cosmos 841 Rocket - Pass Details

Date: 02 October 2022
Orbit: 747 x 771 km, 74.0° (Epoch: 26 November)

Event Time Altitude Azimuth Distance (km) Brightness Sun altitude
Rises 23:09:55 0° 4° (N) 3,183 6.6 -13.9°
Reaches altitude 10° 23:12:33 10° 16° (NNE) 2,257 5.8 -14.6°
Maximum altitude 23:16:58 29° 75° (ENE) 1,339 4.2 -15.7°
Enters shadow 23:18:36 24° 107° (ESE) 1,499 4.4 -16.1°
